Regional Weather Roundup
Issued by NWS

Home | Current Version | Previous Version | Text Only | Print | Product List | Glossary Off
Versions: 1 2 3 4 5 6 7 8 9 10 11 12 13 14 15 16 17 18 19 20 21 22 23 24 25 26 27 28 29 30 31 32 33 34 35 36 37 38 39 40 41 42 43 44 45 46 47 48 49 50

000
ASUS43 KMPX 280210
RWRMN
WEATHER ROUNDUP FOR MINNESOTA
NATIONAL WEATHER SERVICE TWIN CITIES/CHANHASSEN MN
900 PM CDT SAT AUG 27 2016


NOTE: "FAIR" INDICATES FEW OR NO CLOUDS BELOW 12,000 FEET WITH NO
SIGNIFICANT WEATHER AND/OR OBSTRUCTIONS TO VISIBILITY. N/A MEANS
CURRENT SKY AND/OR WEATHER CONDITIONS ARE NOT AVAILABLE.

MNZ060>063-068>070-280300-
   Twin Cities Metro

CITY           SKY/WX    TMP DP  RH WIND       PRES   REMARKS
TWIN CITIES    PTCLDY    67  61  81 CALM      30.03R
ST PAUL        PTCLDY    66  63  90 CALM      30.03R
CRYSTAL        CLEAR     61  58  90 CALM      30.02R
BLAINE         PTCLDY    63  63 100 CALM      30.01S
LAKEVILLE      MOCLDY    63  63 100 CALM      30.04R
EDEN PRAIRIE   CLEAR     65  61  87 CALM      30.02R
LAKEVILLE      MOCLDY    63  63 100 CALM      30.04R
SOUTH ST PAUL  PTCLDY    65  64  96 CALM      30.03R
LAKE ELMO      FAIR      64  63  94 CALM      30.04S
$$
MNZ001>005-007-008-013>017-022>024-027-028-280300-
   Northwest Minnesota

CITY           SKY/WX    TMP DP  RH WIND       PRES   REMARKS
BEMIDJI        CLOUDY    57  55  92 SE6       29.99R
HALLOCK        CLEAR     61  59  94 SE7       29.93R
ROSEAU         PTCLDY    61  55  82 S5        29.96R
WARROAD        PTCLDY    57  54  88 SE3       29.97R
THIEF RVR FALL CLEAR     61  58  90 SE7       29.97R
CROOKSTON      CLEAR     59  55  88 S6        29.95R
FOSSTON        PTCLDY    55  54  94 CALM      29.98R
DETROIT LAKES  CLOUDY    63  59  88 S10       30.00F
MOORHEAD       CLOUDY    64  55  72 E8        29.99R
PARK RAPIDS    CLOUDY    65  58  78 S6        30.00S
MAHNOMEN       FAIR      61  58  91 S8        29.98S
$$
MNZ006-009>011-018-025>026-280300-
   North Central Minnesota

CITY           SKY/WX    TMP DP  RH WIND       PRES   REMARKS
BAUDETTE       MOCLDY    58  56  93 SE5       29.98R
FLAG ISLAND    MOCLDY    63  57  82 SE7       29.95R
INTL FALLS     MOCLDY    53  52  96 CALM      30.01R
WASKISH        CLOUDY    55  54  94 SE5       29.99R
BIG FORK       CLOUDY    54  54 100 CALM      30.03R
LONGVILLE      CLOUDY    57  57 100 SE3       30.02S
GRAND RAPIDS   PTCLDY    54  53  97 S5        30.06R
CRANE LAKE     CLOUDY    54  52  94 CALM      30.02F
ORR            PTCLDY    52  50  93 CALM      30.02R
COOK           PTCLDY    54  54 100 CALM      30.04R
WALKER         FAIR      62  57  84 SE5       30.00S
$$
MNZ012-019>021-037-280300-
   Northeast Minnesota

CITY           SKY/WX    TMP DP  RH WIND       PRES   REMARKS
DULUTH         CLOUDY    61  60  97 N6        30.06R
ELY            HVY RAIN  55  55 100 N3        30.04F
HIBBING        MOCLDY    53  53 100 S3        30.05R
EVELETH        CLOUDY    57  56  95 CALM      30.05S
DULUTH HARBOR  CLOUDY    63  61  94 N6        30.05R
TWO HARBORS    DRIZZLE   63  57  82 CALM      30.04R
SILVER BAY     LGT RAIN  61  61 100 CALM      30.04R
GRAND MARAIS     N/A     61  55  81 VRB5      30.04R
G MARAIS ARPRT CLOUDY    54  46  76 N3        30.08S
$$
MNZ029>031-032-039>041-046>048-054>057-064-280300-
   West Central Minnesota

CITY           SKY/WX    TMP DP  RH WIND       PRES   REMARKS
FERGUS FALLS   CLOUDY    63  59  88 SE6       30.01R
WHEATON        CLEAR     64  61  88 SE8       30.00R
MORRIS         CLEAR     63  61  94 CALM      30.00R
ALEXANDRIA     CLEAR     61  58  90 SE3       30.03R
ELBOW LAKE     FAIR      62  59  91 SE9       30.00R
WADENA         CLEAR     57  55  94 CALM      30.02R
GLENWOOD       CLEAR     59  57  94 CALM      30.03R
APPLETON       CLEAR     64  59  82 SE8       29.99R
BENSON         CLEAR     64  57  77 SE5       30.01R
ORTONVILLE     CLEAR     64  61  88 SE8       29.98R
MADISON        CLEAR     64  63  94 SE6       29.99R
WILLMAR        FAIR      63  61  94 E5        30.04R
$$
MNZ033>034-036-042>043-049>051-058-059-280300-
   Central Minnesota

CITY           SKY/WX    TMP DP  RH WIND       PRES   REMARKS
ST CLOUD       PTCLDY    59  59 100 CALM      30.04R FOG
SAUK CENTRE    FAIR      60  58  94 E3        30.04R
PAYNESVILLE    CLEAR     61  61 100 SE3       30.04R
AITKIN         CLOUDY    64  57  77 CALM      30.03R
PINE RIVER     CLOUDY    59  57  94 S3        30.05S
BRAINERD       MOCLDY    60  58  92 SE3       30.04R
STAPLES        CLEAR     61  55  82 CALM      30.03R
LONG PRAIRIE   FAIR      59  57  94 E6        30.03R
LITTLE FALLS   CLEAR     59  55  88 SE5       30.04R
LITCHFIELD     CLEAR     64  63  94 CALM      30.04R
BUFFALO        CLEAR     63  60  91 CALM      30.04R
MAPLE LAKE     FOG       60  59  97 CALM      30.04R VSB 3/4
HUTCHINSON     PTCLDY    64  63  94 CALM      30.04R
$$
MNZ037-044-045-052-053-280300-
   East Central Minnesota

CITY           SKY/WX    TMP DP  RH WIND       PRES   REMARKS
PRINCETON        N/A     64  63  94 N3        30.05R
MORA           CLOUDY    59  59 100 CALM      30.06R
CAMBRIDGE      CLOUDY    64  61  88 CALM      30.03R
RUSH CITY      LGT RAIN  63  61  96 CALM      30.05R
MOOSE LAKE     CLOUDY    61  59  94 CALM      30.03S
HINCKLEY       CLOUDY    61  61 100 CALM      30.05R
CLOQUET        CLOUDY    61  57  88 N3        30.05R
MCGREGOR       CLOUDY    61  59  94 CALM      30.05R
$$
MNZ071>073-080-081-089-090-097-098-280300-
   Southwest Minnesota

CITY           SKY/WX    TMP DP  RH WIND       PRES   REMARKS
MONTEVIDEO     CLEAR     63  61  94 SE3       30.02R
GRANITE FALLS  CLEAR     67  62  85 E3        30.02R
CANBY          CLEAR     67  63  87 SE5       30.00R
MARSHALL       CLEAR     67  63  87 S5        30.01R
REDWOOD FALLS  CLEAR     67  61  81 SE3       30.01R
OLIVIA         CLEAR     66  63  88 E3        30.02R
PIPESTONE      CLEAR     66  63  88 S6        30.02R
WINDOM         CLEAR     66  61  82 CALM      30.03R
WORTHINGTON    CLEAR     65  62  90 S6        30.04R
JACKSON          N/A     63  59  88 CALM      30.04R
TRACY          CLEAR     65  63  93 S5        30.02R
SLAYTON        CLEAR     64  61  88 CALM      30.04R
$$
MNZ065>067-074>077-082>085-091>093-280300-
   South Central Minnesota

CITY           SKY/WX    TMP DP  RH WIND       PRES   REMARKS
MANKATO        CLEAR     66  63  88 CALM      30.03R
NEW ULM          N/A     64  63  94 CALM      30.02R
ST JAMES       CLEAR     59  57  94 CALM      30.03R
FAIRMONT       CLEAR     64  63  96 E3        30.03R
GLENCOE        PTCLDY    65  65  98 CALM      30.03R
FARIBAULT      MOCLDY    63  63 100 CALM      30.05R
OWATONNA       MOCLDY    66  63  88 CALM      30.04R
WASECA         PTCLDY    63  61  94 CALM      30.05R
ALBERT LEA     CLEAR     66  64  94 CALM      30.05R
$$
MNZ078>079-086>088-094>096-280300-
   Southeast Minnesota

CITY           SKY/WX    TMP DP  RH WIND       PRES   REMARKS
ROCHESTER      CLOUDY    67  65  93 CALM      30.06R
RED WING       CLOUDY    66  66 100 CALM      30.03R FOG
STANTON          N/A     64  61  88 CALM      30.03R VSB 1
DODGE CENTER   PTCLDY    64  61  88 CALM      30.06R FOG
WINONA         CLOUDY    70  66  88 CALM      30.04R
AUSTIN         CLOUDY    66  64  94 CALM      30.05R
PRESTON        CLOUDY    67  64  90 CALM      30.07R
$$
ABBREVIATIONS USED IN REMARKS
   TC - TEMPERATURES IN CELSIUS
  WCI - WIND CHILL INDEX
   HX - HEAT INDEX
  VSB - VISIBILITY
$$



USA.gov is the U.S. government's official web portal to all federal, state and local government web resources and services.